Home   Weather   Gooding   Past weeks
Flag for USA

Past Weather in Gooding, Idaho, USA — Yesterday and Last 2 Weeks

Now
70 °F

Sunny.


Feels Like: 77 °F
Forecast: 72 / 42 °F
Wind: 16 mph from West

Location: Jerome County Airport

Current Time: Apr 23, 2019 at 4:34:23 pm

Latest Report: Apr 23, 2019 at 3:53 pm


Visibility: 10 mi

Pressure: 30.04 "Hg (26.47 "Hg at 1089m altitude)

Humidity: 41%

Dew Point: 45 °F

Location of GoodingLocation

Past Weather in Gooding — Graph

°F

Gooding Temperature Yesterday

Maximum temperature yesterday: 63 °F (at 4:53 pm)
Minimum temperature yesterday: 43 °F (at 5:53 am)
Average temperature yesterday: 53 °F

High & Low Weather Summary for the Past Weeks

 TemperatureHumidityPressure
High78 °F (Apr 19, 4:53 pm)97% (Apr 9, 8:39 am)30.34 "Hg (Apr 9, 8:39 am)
Low32 °F (Apr 12, 4:53 am)23% (Apr 19, 4:53 pm)29.62 "Hg (Apr 15, 7:53 pm)
Average48 °F69%29.94 "Hg
* Reported Apr 8 2:53 pm — Apr 23 2:53 pm, Gooding. Weather by CustomWeather, © 2019

Note: Actual official high and low records may vary slightly from our data, if they occured in-between our weather recording intervals... More about our weather records

Advertising

Gooding Weather History for the Previous 24 Hours

Scroll right to see more
 ConditionsComfort  
Time TempWeatherWind HumidityBarometerVisibility
2:53 pm
Tue, Apr 23
67 °FSunny.12 mph45%30.07 "Hg10 mi
1:53 pm65 °FSunny.14 mph44%30.09 "Hg10 mi
12:53 pm64 °FSunny.14 mph43%30.11 "Hg10 mi
11:53 am61 °FSunny.13 mph44%30.13 "Hg10 mi
10:53 am56 °FSunny.8 mph47%30.14 "Hg10 mi
9:53 am54 °FSunny.12 mph47%30.15 "Hg10 mi
8:53 am51 °FSunny.8 mph54%30.15 "Hg10 mi
7:53 am46 °FSunny.5 mph58%30.14 "Hg10 mi
6:53 am44 °FClear.6 mph60%30.12 "Hg10 mi
5:53 am46 °FClear.6 mph56%30.11 "Hg10 mi
4:53 am46 °FClear.6 mph56%30.12 "Hg10 mi
3:53 am47 °FClear.7 mph54%30.12 "Hg10 mi
2:53 am47 °FClear.8 mph54%30.13 "Hg10 mi
1:53 am47 °FClear.8 mph59%30.15 "Hg10 mi
12:53 am47 °FClear.9 mph61%30.16 "Hg10 mi
11:53 pm
Mon, Apr 22
48 °FClear.8 mph61%30.16 "Hg10 mi
10:53 pm51 °FClear.7 mph56%30.16 "Hg10 mi
9:53 pm54 °FClear.8 mph55%30.16 "Hg10 mi
8:53 pm56 °FSunny.7 mph49%30.14 "Hg10 mi
7:53 pm59 °FSunny.8 mph44%30.13 "Hg10 mi
6:53 pm63 °FSunny.9 mph38%30.13 "Hg10 mi
5:53 pm63 °FSunny.13 mph40%30.14 "Hg10 mi
4:53 pm63 °FScattered clouds.9 mph43%30.14 "Hg10 mi
Weather by CustomWeather, © 2019

See weather overview